KK2Z-13 Weather Reports


time (UTC)temp
F
wind
direction
speed
knots
gust
knots
rain 1hr
in
rain 24hr
in
rain mn
in
humidity
%
barometer
mb
20260506231512 59 360 0.0 2.6 0.00 0.30 0.30 88 1011.5
20260506230011 59 360 0.0 3.5 0.00 0.30 0.30 88 1011.2
20260506224512 58 360 0.0 4.3 0.00 0.30 0.30 88 1011.2
20260506223012 58 360 0.0 2.6 0.00 0.30 0.30 88 1011.1
20260506221510 58 360 0.0 3.5 0.00 0.30 0.30 89 1010.6
20260506220019 58 360 0.0 1.7 0.00 0.30 0.30 90 1010.9
20260506214511 57 360 0.0 3.5 0.00 0.30 0.30 90 1011.1
20260506213008 57 360 0.0 4.3 0.00 0.30 0.30 90 1011.1
20260506211510 57 360 0.0 4.3 0.00 0.30 0.30 91 1011.1
20260506210009 57 360 0.0 4.3 0.00 0.30 0.30 91 1011.1
20260506204510 56 360 0.0 3.5 0.00 0.30 0.30 92 1011.4
20260506203008 56 360 0.0 3.5 0.00 0.30 0.30 92 1011.3
20260506201505 56 360 0.0 3.5 0.00 0.30 0.30 92 1011.5
20260506200005 56 360 0.0 3.5 0.00 0.30 0.30 92 1011.5
20260506194509 56 360 0.0 5.2 0.00 0.30 0.30 92 1011.4
20260506193004 56 360 0.0 4.3 0.00 0.30 0.30 92 1011.4
20260506191503 56 360 0.9 7.8 0.00 0.30 0.30 92 1011.5
20260506190002 56 360 0.0 3.5 0.00 0.30 0.30 93 1011.6
20260506184501 56 360 0.9 4.3 0.00 0.30 0.30 93 1011.7
20260506183101 56 360 0.0 3.5 0.00 0.30 0.30 93 1011.3
20260506181559 56 360 0.0 4.3 0.00 0.30 0.30 93 1011.3
20260506180106 57 360 0.0 5.2 0.00 0.30 0.30 93 1011.6
20260506174601 58 360 0.0 7.8 0.00 0.30 0.30 94 1011.1
20260506173059 58 360 0.0 1.7 0.00 0.30 0.30 95 1010.8
20260506171602 58 360 0.0 1.7 0.00 0.30 0.30 95 1010.4
20260506170107 58 360 0.0 4.3 0.00 0.30 0.30 95 1010.6
20260506164606 57 360 5.2 10.4 0.00 0.30 0.30 94 1009.7
20260506163114 56 360 3.5 9.6 0.02 0.30 0.30 94 1009.7
20260506161601 55 360 5.2 8.7 0.08 0.30 0.30 94 1009.9
20260506160053 55 360 1.7 5.2 0.20 0.30 0.30 93 1010.0
20260506154608 55 360 2.6 14.8 0.30 0.30 0.30 93 1010.7
20260506153055 56 360 0.9 4.3 0.28 0.28 0.28 92 1011.9
20260506151547 56 360 0.0 4.3 0.22 0.22 0.22 92 1011.5
20260506150042 57 360 0.9 7.8 0.10 0.10 0.10 91 1011.8
20260506144538 58 360 0.9 11.3 0.00 0.00 0.00 90 1010.6
20260506143046 59 360 0.9 9.6 0.00 0.00 0.00 90 1009.7
20260506141536 60 360 0.9 5.2 0.00 0.00 0.00 90 1010.0
20260506140029 61 360 0.0 5.2 0.00 0.00 0.00 89 1009.7
20260506134524 62 360 0.0 2.6 0.00 0.00 0.00 90 1008.7
20260506133021 62 360 0.0 0.9 0.00 0.00 0.00 90 1008.3
20260506131519 63 360 0.0 3.5 0.00 0.00 0.00 91 1008.3
20260506130016 64 360 0.0 4.3 0.00 0.00 0.00 92 1008.2
20260506124512 65 360 0.0 1.7 0.00 0.00 0.00 92 1007.6
20260506123008 66 360 0.0 3.5 0.00 0.00 0.00 92 1007.5
20260506121504 67 360 0.0 3.5 0.00 0.00 0.00 92 1007.3
20260506114607 72 141 0.0 1.7 0.00 0.00 0.00 94 1006.8
20260506113058 72 178 0.0 1.7 0.00 0.00 0.00 94 1006.8
20260506111558 72 178 0.0 0.9 0.00 0.00 0.00 94 1006.8
20260506104556 72 360 0.0 0.9 0.00 0.00 0.00 93 1006.9
20260506103054 72 360 0.0 0.9 0.00 0.00 0.00 93 1006.7
20260506101602 72 360 0.0 1.7 0.00 0.00 0.00 93 1006.6
20260506100051 72 360 0.0 1.7 0.00 0.00 0.00 92 1006.5
20260506094607 73 360 0.0 1.7 0.00 0.00 0.00 92 1006.2
20260506093053 73 209 0.0 4.3 0.00 0.00 0.00 91 1006.1
20260506091546 73 220 1.7 5.2 0.00 0.00 0.00 91 1006.0
20260506090045 73 176 0.0 3.5 0.00 0.00 0.00 91 1005.8
20260506084546 73 173 0.0 4.3 0.00 0.00 0.00 90 1005.8
20260506083043 73 192 0.0 5.2 0.00 0.00 0.00 90 1005.7
20260506081542 73 169 0.0 1.7 0.00 0.00 0.00 90 1005.8
20260506073045 74 172 0.9 7.0 0.00 0.00 0.00 90 1005.9
20260506071540 74 170 0.9 5.2 0.00 0.00 0.00 90 1005.9
20260506061536 74 178 3.5 13.9 0.00 0.00 0.00 91 1005.6
20260506044510 73 153 1.7 7.8 0.00 0.00 0.00 89 1005.4
20260506043009 73 182 0.9 5.2 0.00 0.00 0.00 88 1005.4
20260506041509 74 187 0.0 3.5 0.00 0.00 0.00 88 1005.5
20260506040030 74 180 0.0 4.3 0.00 0.00 0.00 88 1005.2
20260506034508 74 184 0.0 2.6 0.00 0.00 0.00 87 1005.4
20260506033007 74 174 0.0 1.7 0.00 0.00 0.00 86 1005.2
20260506031517 74 173 0.0 4.3 0.00 0.00 0.00 86 1004.9
20260506030008 75 205 0.9 6.1 0.00 0.00 0.00 85 1004.7
20260506024516 75 164 0.0 1.7 0.00 0.00 0.00 84 1004.4
20260506023005 75 155 0.0 2.6 0.00 0.00 0.00 83 1004.2
20260506021506 76 165 0.0 1.7 0.00 0.00 0.00 82 1004.1
20260506020005 76 163 0.0 1.7 0.00 0.00 0.00 81 1003.9
20260506014508 77 360 0.0 3.5 0.00 0.00 0.00 80 1003.7
20260506013004 77 360 0.0 4.3 0.00 0.00 0.00 79 1003.4
20260506011504 78 360 0.0 3.5 0.00 0.00 0.00 78 1003.3
20260506010008 79 153 0.0 4.3 0.00 0.00 0.00 76 1003.3
20260506004506 80 146 0.0 4.3 0.00 0.00 0.00 73 1003.1
20260506003004 81 174 0.0 4.3 0.00 0.00 0.00 70 1003.1
20260506001502 82 159 0.9 7.0 0.00 0.00 0.00 69 1003.2
20260506000001 82 187 0.9 7.8 0.00 0.00 0.00 69 1003.2
20260505234501 82 190 2.6 8.7 0.00 0.00 0.00 67 1003.2
20260505233111 82 192 6.1 12.2 0.00 0.00 0.00 67 1003.2